カタログに戻る

STARLINK-11424

運用中通信VLEO
NORAD 61949·PAYLOAD·🇺🇸 United States

打ち上げ Nov 14, 2024 から Vandenberg Space Force Base

Loading…

次のパス (今後24時間)

TLE

最新Source: CelesTrak SupGP

元期: Sep 15, 2026, 03:05 UTC

1 61949C 24209L   26258.12895833  .00031404  00000+0  25865-3 0  2586
2 61949  53.1569 157.2822 0001177  84.1648 254.1263 15.69696522    19

AllMySatでSTARLINK-11424をリアルタイム追跡

Download on the App Store